Ahmedabad, India

4:15 AM IST on January 24, 2018 (GMT +0530)
Ahmedabad

Weather History for VAAH - February, 2013

Change the Weather History Date:

Thursday, February 21, 2013

  Actual Average Record
Temperature  
Mean Temperature 76 °F -  
Max Temperature 93 °F 91 °F 96 °F (2006)
Min Temperature 60 °F 64 °F 42 °F (2005)
Cooling Degree Days 12    
Growing Degree Days 26 (Base 50)    
Moisture  
Dew Point 51 °F    
Average Humidity 41    
Maximum Humidity 63    
Minimum Humidity 17    
Precipitation  
Precipitation 0.00 in 0.00 in - ()
Sea Level Pressure  
Sea Level Pressure 29.89 in    
Wind  
Wind Speed 4 mph ()    
Max Wind Speed 8 mph    
Max Gust Speed -    
Visibility 2.7 miles    
Events      
Averages and records for this station are not official NWS values.
T = Trace of Precipitation, MM = Missing Value Source: Averaged Metar Reports

Daily Weather History Graph

Daily Weather History Graph

Search for Another Location

Airport or City:

Trip Planner

Search our weather history database for the weather conditions in past years. The results will help you decide how hot, cold, wet, or windy it might be!

Date:

Astronomy

Feb. 21, 2013 Rise Set
Actual Time 7:07 AM IST 6:38 PM IST
Civil Twilight 6:44 AM IST 7:01 PM IST
Nautical Twilight 6:18 AM IST 7:28 PM IST
Astronomical Twilight 5:52 AM IST 7:54 PM IST
Moon 2:47 PM IST (2/21) 3:33 AM IST (2/21)
Length of Visible Light 12h 16m
Length of Day
11h 31m
Waxing Gibbous, 80% of the Moon is Illuminated
Feb 21
Waxing Gibbous
Feb 26
Full
Mar 5
Last Quarter
Mar 12
New
Mar 19
First Quarter

Hourly Weather History & Observations

Time (IST) Temp. Heat Index Dew Point Humidity Pressure Visibility Wind Dir Wind Speed Gust Speed Precip Events Conditions
12:10 AM 68.0 °F - 53.6 °F 60% 29.92 in 2.5 mi NNE 3.5 mph - N/A   Smoke
12:40 AM 64.4 °F - 50.0 °F 59% 29.92 in 2.5 mi NE 3.5 mph - N/A   Smoke
1:10 AM 64.4 °F - 50.0 °F 59% 29.92 in 2.5 mi NE 3.5 mph - N/A   Smoke
1:40 AM 66.2 °F - 46.4 °F 49% 29.89 in 2.5 mi NE 4.6 mph - N/A   Smoke
2:10 AM 64.4 °F - 48.2 °F 56% 29.89 in 2.5 mi NNE 3.5 mph - N/A   Smoke
2:30 AM 69 °F - 51 °F 42% 29.93 in 2 mi Calm Calm - -  
2:40 AM 64.4 °F - 48.2 °F 56% 29.89 in 2.5 mi NNE 3.5 mph - N/A   Smoke
3:10 AM 64.4 °F - 48.2 °F 56% 29.89 in 2.5 mi NE 3.5 mph - N/A   Smoke
3:40 AM 62.6 °F - 48.2 °F 59% 29.89 in 2.5 mi NE 3.5 mph - N/A   Haze
4:10 AM 64.4 °F - 46.4 °F 52% 29.89 in 2.5 mi NE 5.8 mph - N/A   Haze
4:40 AM 64.4 °F - 46.4 °F 52% 29.89 in 2.5 mi NE 5.8 mph - N/A   Haze
5:10 AM 62.6 °F - 46.4 °F 55% 29.89 in 2.5 mi NNE 4.6 mph - N/A   Haze
5:30 AM 66 °F - 50 °F 45% 29.93 in 2 mi North 3.5 mph - -  
5:40 AM 60.8 °F - 48.2 °F 63% 29.92 in 2.5 mi NE 3.5 mph - N/A   Haze
6:10 AM 60.8 °F - 46.4 °F 59% 29.92 in 2.2 mi ENE 4.6 mph - N/A   Haze
6:40 AM 62.6 °F - 46.4 °F 55% 29.92 in 2.2 mi ENE 5.8 mph - N/A   Haze
8:40 AM 68.0 °F - 48.2 °F 49% 29.95 in 2.5 mi East 8.1 mph - N/A   Smoke
10:40 AM 78.8 °F - 50.0 °F 36% 29.98 in 3.1 mi East 5.8 mph - N/A   Smoke
11:30 AM 82 °F - 51 °F 24% 29.98 in 2 mi East 3.5 mph - -  
11:40 AM 84.2 °F - 51.8 °F 33% 29.95 in 3.7 mi ESE 5.8 mph - N/A   Unknown
12:40 PM 89.6 °F 87.3 °F 53.6 °F 29% 29.89 in 3.7 mi SSE 4.6 mph - N/A   Unknown
1:10 PM 89.6 °F - 51.8 °F 27% 29.89 in 3.7 mi SSE 4.6 mph - N/A   Unknown
1:40 PM 91.4 °F 89.1 °F 53.6 °F 28% 29.86 in 3.7 mi South 5.8 mph - N/A   Unknown
2:10 PM 91.4 °F - 51.8 °F 26% 29.83 in 3.7 mi South 4.6 mph - N/A   Unknown
2:30 PM 90 °F - 53 °F 18% 29.86 in 2 mi South 3.5 mph - -   Scattered Clouds
3:10 PM 93.2 °F - 51.8 °F 24% 29.83 in 3.7 mi SW 4.6 mph - N/A   Unknown
3:40 PM 93.2 °F - 50.0 °F 23% 29.80 in 3.7 mi SSE 4.6 mph - N/A   Unknown
4:10 PM 95.0 °F - 51.8 °F 23% 29.80 in 3.7 mi SSE 4.6 mph - N/A   Unknown
4:40 PM 93.2 °F - 48.2 °F 21% 29.80 in 3.7 mi SW 6.9 mph - N/A   Unknown
5:10 PM 93.2 °F - 48.2 °F 21% 29.83 in 3.7 mi WSW 5.8 mph - N/A   Unknown
5:30 PM 91 °F - 51 °F 17% 29.85 in 2 mi SSW 3.5 mph - -  
5:40 PM 91.4 °F - 48.2 °F 23% 29.83 in 3.7 mi WSW 6.9 mph - N/A   Unknown
6:40 PM 87.8 °F - 48.2 °F 25% 29.83 in 2.5 mi SW 2.3 mph - N/A   Smoke
7:10 PM 84.2 °F - 50.0 °F 30% 29.83 in 2.5 mi Variable 2.3 mph - N/A   Smoke
7:40 PM 82.4 °F - 51.8 °F 35% 29.86 in 2.5 mi Variable 3.5 mph - N/A   Smoke
8:10 PM 78.8 °F - 51.8 °F 39% 29.86 in 2.5 mi NNE 3.5 mph - N/A   Smoke
8:30 PM 75 °F - 58 °F 46% 29.90 in 2 mi Calm Calm - -   Smoke
8:40 PM 78.8 °F - 51.8 °F 39% 29.86 in 2.5 mi East 3.5 mph - N/A   Smoke
9:10 PM 78.8 °F - 51.8 °F 39% 29.89 in 2.5 mi NE 3.5 mph - N/A   Smoke
9:40 PM 75.2 °F - 51.8 °F 44% 29.89 in 2.5 mi NE 3.5 mph - N/A   Smoke
10:10 PM 73.4 °F - 55.4 °F 53% 29.92 in 2.5 mi NNE 3.5 mph - N/A   Smoke
10:40 PM 71.6 °F - 55.4 °F 57% 29.92 in 2.5 mi NE 3.5 mph - N/A   Smoke
11:10 PM 71.6 °F - 55.4 °F 57% 29.92 in 2.5 mi NE 3.5 mph - N/A   Smoke
11:30 PM 70 °F - 59 °F 59% 29.94 in 2 mi Calm Calm - -   Haze